This is the latest recevied weather packets stored in our database for station/object KF4WSW-13. If no packets are shown the sender has not sent any weather packets the latest 10 day(s).
| Time | Temp. | Humidity | Pressure | Rain* | Wind** | Luminosity | Snow |
|---|---|---|---|---|---|---|---|
| 1777925570 | 26.67° C | 57% | 1012.2 hPa | 0 mm | - | 554 W/m² | - |
| 1777925268 | 26.11° C | 55% | 1012.4 hPa | 0 mm | - | 577 W/m² | - |
| 1777924963 | 26.11° C | 54% | 1012.2 hPa | 0 mm | - | 609 W/m² | - |
| 1777924660 | 26.11° C | 55% | 1012.5 hPa | 0 mm | - | 611 W/m² | - |
| 1777924356 | 26.11° C | 56% | 1012.5 hPa | 0 mm | - | 632 W/m² | - |
| 1777924053 | 26.11° C | 57% | 1012.6 hPa | 0 mm | - | 625 W/m² | - |
| 1777923749 | 26.11° C | 55% | 1012.6 hPa | 0 mm | - | 626 W/m² | - |
| 1777923446 | 26.67° C | 54% | 1012.8 hPa | 0 mm | - | 664 W/m² | - |
| 1777923143 | 26.11° C | 53% | 1013 hPa | 0 mm | - | 695 W/m² | - |
| 1777922841 | 26.67° C | 56% | 1012.9 hPa | 0 mm | - | 605 W/m² | - |
| 1777922539 | 26.67° C | 56% | 1013 hPa | 0 mm | - | 509 W/m² | - |
| 1777922238 | 26.11° C | 57% | 1013.1 hPa | 0 mm | - | 604 W/m² | - |
| 1777921934 | 26.11° C | 56% | 1012.9 hPa | 0 mm | - | 566 W/m² | - |
| 1777921629 | 26.67° C | 55% | 1013.2 hPa | 0 mm | - | 188 W/m² | - |
| 1777921326 | 26.67° C | 52% | 1013.5 hPa | 0 mm | - | 509 W/m² | - |
| 1777921023 | 27.22° C | 53% | 1013.4 hPa | 0 mm | - | 659 W/m² | - |
| 1777920719 | 26.67° C | 48% | 1013.5 hPa | 0 mm | - | 841 W/m² | - |
| 1777920415 | 26.67° C | 52% | 1013.4 hPa | 0 mm | - | 270 W/m² | - |
| 1777920110 | 26.67° C | 49% | 1013.3 hPa | 0 mm | - | 326 W/m² | - |
| 1777919808 | 27.22° C | 53% | 1013.8 hPa | 0 mm | - | 667 W/m² | - |
| 1777919505 | 27.78° C | 54% | 1013.7 hPa | 0 mm | - | 644 W/m² | - |
| 1777919203 | 27.22° C | 51% | 1013.8 hPa | 0 mm | - | 717 W/m² | - |
| 1777918900 | 26.67° C | 48% | 1014.1 hPa | 0 mm | - | 914 W/m² | - |
| 1777918597 | 26.67° C | 49% | 1014 hPa | 0 mm | - | 782 W/m² | - |
| 1777918295 | 26.67° C | 53% | 1014 hPa | 0 mm | - | 348 W/m² | - |
* Rain latest hour (hover to see other rain measurements)
** Current wind speed in m/s (hover to see current wind gust speed)